Location: Haskovo
(41.9227°N, 25.5707°E)
Time: 21:17:44
(UTC+03:00)

ISS - Pass Details

Date: 23 May 2025
Orbit: 415 x 417 km, 51.6° (Epoch: 16 June)

Event Time Altitude Azimuth Distance (km) Brightness Sun altitude
Rises 21:42:37 0° 308° (NW) 2,361 2.4 -10.5°
Reaches altitude 10° 21:44:50 10° 318° (NW) 1,495 0.6 -10.8°
Maximum altitude 21:47:56 34° 25° (NNE) 711 -2.5 -11.3°
Enters shadow 21:50:41 12° 90° (E) 1,366 -1.6 -11.6°
